[[{"header":{"parameterUnit":"m.s-1","parameterCategory":1,"la1":30.2991,"la2":30.254,"lo1":-89.0895,"lo2":-89.0444,"dy":0.0017,"dx":0.0017,"nx":28,"ny":28,"refTime":"2024-12-18T03:00:00:Z","depth":0,"parameterNumber":2,"parameterNumberName":"U-component_of_WINDS"},"data":[0,0,0,0,0,0,0,0,0,0,0,0,0,0,0,0,0,0,0,0,0,0,0,0,0,0,0,0,0,0,0,0,0,0,0,0,0,0,0,0,0,0,0,0,0,0,0,0,0,0,0,0,0,0,0,0,0,0,0.4486,0.4486,0,0.4447,0.4447,0.4446,0.4439,0.4439,0.444,0.444,0.4396,0.4395,0.4393,0,0,0,0,0,0,0,0,0,0,0,0,0,0.4553,0.4552,0.4486,0.4486,0.4485,0.4447,0.4446,0.4446,0.4439,0.4439,0.444,0.444,0.4397,0.4395,0.4393,0,0,0,0,0,0,0,0,0,0,0,0,0,0.452,0.4552,0.4486,0.4477,0.4476,0.4447,0.4446,0.4446,0.4439,0.4439,0.444,0.444,0.4397,0.4395,0.4393,0.4369,0,0,0.4386,0.4385,0,0,0,0,0,0,0,0,0.4522,0.4517,0.4479,0.4478,0.4476,0.4448,0.4454,0.442,0.4439,0.4453,0.444,0.444,0.4413,0.4409,0.4401,0.4367,0.4365,0.4386,0.4385,0.4384,0.4383,0,0,0,0,0,0,0,0.4524,0.4519,0.4471,0.4479,0.4477,0.4474,0.447,0.4448,0.443,0.4452,0.4451,0.4447,0.4412,0.4403,0.44,0.4365,0.4386,0.4384,0.4383,0.4382,0.431,0.431,0,0,0,0,0,0,0.4528,0.4521,0.4472,0.447,0.4501,0.4473,0.4468,0.4457,0.4431,0.4427,0.4446,0.4446,0.4406,0.4402,0.4398,0.4369,0.4384,0.4382,0.438,0.4311,0.431,0.4309,0,0,0,0,0,0,0.453,0.4524,0.4474,0.4495,0.4489,0.4471,0.4459,0.4456,0.4447,0.4427,0.4423,0.444,0.4407,0.4401,0.4377,0.4367,0.4381,0.4378,0.4311,0.4311,0.431,0.431,0,0,0,0,0,0,0.4532,0.4525,0.4516,0.4495,0.4487,0.4454,0.4458,0.4455,0.4443,0.4443,0.442,0.4417,0.4407,0.438,0.4375,0.4364,0.4377,0.4312,0.4311,0.431,0.4311,0.431,0.4308,0,0,0,0,0,0.4534,0.4517,0.4516,0.451,0.4476,0.4453,0.4449,0.4438,0.4442,0.4433,0.4421,0.4417,0.437,0.4378,0.4371,0.436,0.4313,0.4311,0.431,0.4312,0.431,0.4308,0,0,0,0,0,0,0.4535,0.4514,0.4512,0.4488,0.4472,0.4452,0.444,0.4437,0.4419,0.442,0.4407,0.4402,0.4378,0.4367,0.4376,0.4337,0.4341,0.4339,0.4345,0.4343,0.4341,0.4344,0.4375,0,0,0,0,0,0.4533,0.4517,0.4499,0.4479,0.4471,0.4457,0.4446,0.444,0.4423,0.4417,0.4402,0.4385,0.4366,0.4354,0.4336,0.431,0.4305,0.4299,0.4298,0.4297,0.4294,0.428,0.4278,0.4305,0.4305,0.4305,0,0,0.4528,0.4514,0.4504,0.4479,0.4466,0.4449,0.4451,0.4433,0.442,0.4413,0.439,0.4379,0.4359,0.4334,0.4322,0.4324,0.4286,0.4295,0.4295,0.4293,0.4279,0.4276,0.4274,0.4304,0.4305,0.4305,0,0,0.4509,0.4497,0.4479,0.4467,0.4449,0.444,0.4436,0.4416,0.4409,0.4385,0.438,0.4364,0.4332,0.4318,0.4307,0.4285,0.4281,0.4279,0.4271,0.4258,0.4256,0.4253,0.4245,0.4242,0.4277,0.4277,0.4277,0,0.4504,0.4478,0.447,0.4452,0.4441,0.4436,0.4418,0.4406,0.4382,0.4374,0.4377,0.4338,0.4324,0.4296,0.4291,0.4282,0.4276,0.4281,0.4257,0.4255,0.4253,0.4245,0.4241,0.4277,0.4277,0.4277,0.4277,0,0.4473,0.4456,0.4444,0.4422,0.441,0.4392,0.438,0.4369,0.4364,0.4355,0.4331,0.4315,0.4293,0.4286,0.4281,0.4257,0.4259,0.426,0.4264,0.425,0.4242,0.4239,0.4277,0.4277,0.4277,0.4277,0,0,0.4452,0.4428,0.4423,0.4414,0.4394,0.438,0.4362,0.4342,0.4332,0.4317,0.4301,0.4275,0.4275,0.4263,0.4256,0.4244,0.4227,0.4246,0.4245,0.4243,0.42,0.42,0.4196,0.4225,0.4225,0.4224,0.4202,0,0.4431,0.4399,0.4392,0.4364,0.4348,0.4344,0.4328,0.4314,0.4305,0.4289,0.4279,0.4261,0.4263,0.4256,0.4244,0.4232,0.4219,0.4234,0.4209,0.4209,0.4214,0.4192,0.4191,0.417,0.4199,0.4198,0.4198,0,0.44,0.4386,0.4357,0.434,0.4333,0.4319,0.4301,0.4286,0.427,0.4264,0.4251,0.4246,0.4227,0.4233,0.4206,0.4216,0.4206,0.4199,0.4198,0.4194,0.4202,0.4187,0.4164,0.416,0.4193,0.4193,0.4194,0,0.4388,0.436,0.434,0.4332,0.4312,0.4302,0.4293,0.4278,0.4266,0.425,0.4243,0.4225,0.4214,0.42,0.419,0.4195,0.4163,0.4169,0.4157,0.4157,0.4149,0.415,0.4123,0.4145,0.4145,0.4145,0.4145,0,0.4364,0.4346,0.4334,0.4321,0.4301,0.4293,0.4274,0.4265,0.4251,0.4236,0.4231,0.4217,0.4205,0.4189,0.4181,0.416,0.4155,0.415,0.4148,0.415,0.415,0.4142,0.4143,0.4144,0.4144,0.4144,0.4144,0,0.4345,0.4336,0.4314,0.4297,0.4293,0.4279,0.4264,0.4252,0.4244,0.4225,0.422,0.4206,0.4187,0.4176,0.4152,0.4147,0.4123,0.4122,0.4129,0.4127,0.4116,0.4117,0.4082,0.4077,0.4103,0.4103,0.4103,0,0.433,0.4317,0.4299,0.429,0.4281,0.4265,0.4254,0.4246,0.4235,0.4216,0.4206,0.4187,0.4171,0.4142,0.4129,0.4111,0.4109,0.4098,0.4106,0.4108,0.4108,0.4108,0.4107,0.4096,0.4096,0.4095,0.4095,0,0.4304,0.43,0.4286,0.4269,0.4257,0.4244,0.423,0.4222,0.4212,0.4199,0.4181,0.4169,0.4145,0.4127,0.4108,0.4098,0.4094,0.4093,0.409,0.4091,0.4095,0.4092,0.4124,0.4094,0.4094,0.4094,0.4094,0.4094,0.4286,0.4274,0.426,0.4244,0.4234,0.4222,0.4209,0.42,0.4185,0.4166,0.4162,0.4142,0.4127,0.4101,0.4091,0.4075,0.4077,0.4071,0.407,0.4069,0.4068,0.4099,0.4072,0.4072,0.4072,0.4072,0.4072,0,0.4259,0.425,0.4236,0.4218,0.4205,0.4205,0.4191,0.418,0.4163,0.415,0.4135,0.4114,0.4097,0.4083,0.4065,0.4055,0.4053,0.405,0.405,0.4048,0.4068,0.4073,0.4052,0.4052,0.4052,0.4052,0.4052,0.4052,0.4243,0.4223,0.4219,0.4194,0.4185,0.4167,0.4158,0.4147,0.4137,0.4114,0.41,0.4092,0.4079,0.406,0.4043,0.404,0.4033,0.403,0.4026,0.4045,0.4047,0.4049,0.4053,0.4029,0.4029,0.4008,0.4008,0.4008]},{"header":{"parameterUnit":"m.s-1","parameterCategory":1,"la1":30.2991,"la2":30.254,"lo1":-89.0895,"lo2":-89.0444,"dy":0.0017,"dx":0.0017,"nx":28,"ny":28,"refTime":"2024-12-18T03:00:00:Z","depth":0,"parameterNumber":3,"parameterNumberName":"V-component_of_WINDS"},"data":[0,0,0,0,0,0,0,0,0,0,0,0,0,0,0,0,0,0,0,0,0,0,0,0,0,0,0,0,0,0,0,0,0,0,0,0,0,0,0,0,0,0,0,0,0,0,0,0,0,0,0,0,0,0,0,0,0,0,-4.9085,-4.9086,0,-4.9168,-4.9169,-4.917,-4.9113,-4.911,-4.9108,-4.9105,-4.9185,-4.919,-4.9194,0,0,0,0,0,0,0,0,0,0,0,0,0,-4.8872,-4.8876,-4.9085,-4.9086,-4.9087,-4.9168,-4.9169,-4.917,-4.9113,-4.911,-4.9107,-4.9104,-4.9184,-4.9189,-4.9195,0,0,0,0,0,0,0,0,0,0,0,0,0,-4.8961,-4.8878,-4.9085,-4.9069,-4.9068,-4.9168,-4.9169,-4.9171,-4.9114,-4.911,-4.9106,-4.9103,-4.9182,-4.9189,-4.9195,-4.9314,0,0,-4.9216,-4.9219,0,0,0,0,0,0,0,0,-4.8956,-4.8969,-4.907,-4.907,-4.907,-4.9126,-4.9123,-4.9219,-4.9115,-4.9097,-4.9105,-4.9101,-4.9169,-4.9176,-4.92,-4.9318,-4.9321,-4.9217,-4.9221,-4.9224,-4.9226,0,0,0,0,0,0,0,-4.895,-4.8965,-4.9118,-4.9072,-4.9071,-4.9056,-4.9064,-4.9141,-4.9153,-4.9098,-4.9094,-4.9105,-4.9168,-4.9194,-4.9202,-4.9323,-4.9217,-4.9223,-4.9227,-4.9229,-4.9541,-4.9545,0,0,0,0,0,0,-4.8946,-4.896,-4.9115,-4.912,-4.9002,-4.9063,-4.9072,-4.9112,-4.9152,-4.9154,-4.9108,-4.9102,-4.9184,-4.9194,-4.9204,-4.9345,-4.9224,-4.923,-4.9234,-4.9537,-4.9542,-4.9547,0,0,0,0,0,0,-4.8941,-4.896,-4.9112,-4.9039,-4.9057,-4.907,-4.9116,-4.9116,-4.9142,-4.916,-4.9161,-4.9133,-4.9181,-4.9195,-4.9287,-4.9347,-4.9233,-4.9239,-4.9532,-4.9539,-4.9544,-4.963,0,0,0,0,0,0,-4.8936,-4.8959,-4.9006,-4.9041,-4.9062,-4.9196,-4.912,-4.912,-4.9154,-4.9147,-4.9183,-4.9186,-4.9179,-4.9278,-4.9294,-4.9355,-4.9245,-4.9527,-4.9535,-4.9542,-4.9621,-4.9638,-4.9652,0,0,0,0,0,-4.8928,-4.9025,-4.9008,-4.9027,-4.912,-4.9199,-4.9211,-4.9203,-4.9159,-4.9205,-4.9217,-4.9184,-4.9338,-4.9288,-4.9306,-4.9369,-4.9523,-4.9533,-4.9542,-4.9614,-4.9635,-4.9652,0,0,0,0,0,0,-4.8995,-4.903,-4.9011,-4.9123,-4.9159,-4.919,-4.9247,-4.9225,-4.9273,-4.9264,-4.9251,-4.9259,-4.9357,-4.9372,-4.9315,-4.9486,-4.9423,-4.9437,-4.9472,-4.9492,-4.9507,-4.9501,-4.925,0,0,0,0,0,-4.9023,-4.9086,-4.9112,-4.9208,-4.9227,-4.9235,-4.9269,-4.926,-4.9296,-4.931,-4.9328,-4.9363,-4.9419,-4.9456,-4.9509,-4.9623,-4.963,-4.9676,-4.9691,-4.9704,-4.9715,-4.9776,-4.9797,-4.9578,-4.9578,-4.9577,0,0,-4.9081,-4.9108,-4.9148,-4.9222,-4.9249,-4.9313,-4.9248,-4.9318,-4.9365,-4.932,-4.941,-4.9424,-4.9462,-4.9566,-4.9613,-4.9582,-4.9777,-4.9716,-4.9726,-4.9731,-4.9788,-4.9809,-4.9827,-4.9584,-4.9583,-4.9582,0,0,-4.9219,-4.9246,-4.9329,-4.9358,-4.94,-4.9404,-4.9424,-4.9458,-4.9467,-4.9557,-4.9524,-4.9579,-4.9676,-4.9704,-4.9731,-4.988,-4.9852,-4.9898,-4.9978,-5.0037,-5.0055,-5.007,-5.0122,-5.0142,-4.9909,-4.991,-4.991,0,-4.9285,-4.9382,-4.9374,-4.9447,-4.948,-4.9445,-4.9527,-4.9555,-4.9611,-4.9634,-4.9599,-4.972,-4.9743,-4.9853,-4.989,-4.9913,-4.9934,-4.9893,-5.0053,-5.0068,-5.0082,-5.0132,-5.0152,-4.9915,-4.9914,-4.9914,-4.9913,0,-4.9461,-4.9529,-4.959,-4.9648,-4.9688,-4.9765,-4.9767,-4.9808,-4.9796,-4.9803,-4.9894,-4.9921,-4.9978,-5.0003,-4.9991,-5.0112,-5.0091,-5.0055,-4.9992,-5.0109,-5.0155,-5.0174,-4.9922,-4.992,-4.9919,-4.9918,0,0,-4.9643,-4.9696,-4.9719,-4.9744,-4.9788,-4.9839,-4.9914,-4.9972,-5.0007,-5.0047,-5.0109,-5.0192,-5.0159,-5.019,-5.0181,-5.0233,-5.0349,-5.019,-5.0191,-5.0218,-5.0482,-5.0509,-5.0531,-5.0331,-5.0334,-5.0337,-5.0479,0,-4.9784,-4.9918,-4.9912,-5.0036,-5.0098,-5.0065,-5.013,-5.0163,-5.0172,-5.0224,-5.0233,-5.0292,-5.0245,-5.0263,-5.0313,-5.0324,-5.0401,-5.0314,-5.0387,-5.0389,-5.0378,-5.0556,-5.0585,-5.0717,-5.0497,-5.05,-5.0503,0,-4.9966,-5.0014,-5.0145,-5.0179,-5.0205,-5.0264,-5.0316,-5.0367,-5.0403,-5.0406,-5.0441,-5.0423,-5.0497,-5.0433,-5.0535,-5.0475,-5.0504,-5.0514,-5.0519,-5.0525,-5.0453,-5.0566,-5.0759,-5.0779,-5.0531,-5.0529,-5.0527,0,-5.0085,-5.0182,-5.0273,-5.0296,-5.0339,-5.0381,-5.04,-5.0433,-5.0468,-5.0513,-5.0535,-5.0588,-5.0616,-5.0657,-5.0653,-5.0606,-5.0756,-5.0691,-5.0759,-5.0759,-5.0791,-5.0789,-5.0992,-5.0811,-5.0811,-5.0811,-5.081,0,-5.0242,-5.0323,-5.0327,-5.0383,-5.0473,-5.0465,-5.0553,-5.0568,-5.0597,-5.0654,-5.0628,-5.0681,-5.0673,-5.0726,-5.0723,-5.0808,-5.0821,-5.0824,-5.0822,-5.0826,-5.0826,-5.0845,-5.0835,-5.0816,-5.0815,-5.0814,-5.0813,0,-5.0391,-5.0397,-5.0494,-5.0527,-5.0537,-5.0601,-5.0629,-5.0681,-5.0687,-5.076,-5.0776,-5.0786,-5.0847,-5.0847,-5.0917,-5.0915,-5.1018,-5.1006,-5.1006,-5.1004,-5.1072,-5.1065,-5.1293,-5.1322,-5.1123,-5.1125,-5.1127,0,-5.049,-5.0552,-5.0593,-5.063,-5.0652,-5.0712,-5.0748,-5.0743,-5.0781,-5.0827,-5.0873,-5.0932,-5.0979,-5.1078,-5.109,-5.1143,-5.1131,-5.1208,-5.1139,-5.1141,-5.1132,-5.1128,-5.1134,-5.1221,-5.1223,-5.1225,-5.1226,0,-5.0667,-5.0667,-5.0721,-5.0776,-5.082,-5.0863,-5.0902,-5.0933,-5.0932,-5.0976,-5.1039,-5.1076,-5.1147,-5.1206,-5.1257,-5.1274,-5.125,-5.1248,-5.1266,-5.1271,-5.1269,-5.1271,-5.1043,-5.1243,-5.1241,-5.124,-5.1239,-5.1238,-5.0793,-5.0847,-5.0884,-5.0945,-5.0974,-5.1011,-5.1062,-5.1076,-5.1129,-5.1188,-5.1181,-5.1251,-5.1285,-5.1351,-5.1373,-5.1427,-5.14,-5.1427,-5.1434,-5.144,-5.1448,-5.1261,-5.1436,-5.1436,-5.1435,-5.1435,-5.1435,0,-5.0968,-5.099,-5.1046,-5.1103,-5.1151,-5.1126,-5.1168,-5.1208,-5.1271,-5.1306,-5.1353,-5.1425,-5.1482,-5.1499,-5.1553,-5.1593,-5.1583,-5.1607,-5.1604,-5.1608,-5.1469,-5.1447,-5.1614,-5.1614,-5.1614,-5.1614,-5.1614,-5.1614,-5.1064,-5.1154,-5.1158,-5.1261,-5.1282,-5.1352,-5.1378,-5.1412,-5.144,-5.1522,-5.157,-5.1581,-5.1608,-5.1665,-5.1715,-5.1718,-5.1739,-5.1768,-5.1767,-5.1636,-5.1618,-5.1601,-5.1581,-5.1773,-5.1773,-5.1902,-5.1903,-5.1904]}]]